Weather History for KMLP - May, 2013

Change the Weather History Date:

Wednesday, May 15, 2013

  Actual Average (K3TH) Record (K3TH)
Temperature  
Mean Temperature 41 °F -  
Max Temperature 48 °F 65 °F 79 °F (1997)
Min Temperature 34 °F 44 °F 34 °F (2002)
Degree Days  
Heating Degree Days 24    
Moisture  
Dew Point 24 °F    
Average Humidity 52    
Maximum Humidity 65    
Minimum Humidity 32    
Precipitation  
Precipitation 0.00 in - - ()
Sea Level Pressure  
Sea Level Pressure 29.90 in    
Wind  
Wind Speed 3 mph (NW)    
Max Wind Speed 8 mph    
Max Gust Speed -    
Visibility 10 miles    
Events      
Averages and records for this station are not official NWS values.
T = Trace of Precipitation, MM = Missing Value Source: NWS Daily Summary

Daily Weather History Graph

Daily Weather History Graph

Search for Another Location

Airport or City:

Trip Planner

Search our weather history database for the weather conditions in past years. The results will help you decide how hot, cold, wet, or windy it might be!

Date:

Astronomy

May. 15, 2013 Rise Set
Actual Time 5:05 AM PDT 8:13 PM PDT
Civil Twilight 4:28 AM PDT 8:50 PM PDT
Nautical Twilight 3:41 AM PDT 9:37 PM PDT
Astronomical Twilight 2:42 AM PDT 10:37 PM PDT
Moon 9:49 AM PDT (5/15) No Moon Set
Length of Visible Light 16h 21m
Length of Day
15h 08m
Waxing Crescent, 28% of the Moon is Illuminated
May 15
Waxing Crescent
May 17
First Quarter
May 24
Full
May 31
Last Quarter
Jun 8
New

Hourly Weather History & Observations

Time (PDT) Temp. Windchill Dew Point Humidity Pressure Visibility Wind Dir Wind Speed Gust Speed Precip Events Conditions
12:53 AM 35.1 °F 32.2 °F 21.9 °F 59% 29.97 in 10.0 mi WNW 3.5 mph - N/A   Clear
1:53 AM 35.1 °F 31.0 °F 21.0 °F 57% 29.96 in 10.0 mi WNW 4.6 mph - N/A   Clear
2:53 AM 34.0 °F - 21.9 °F 61% 29.97 in 10.0 mi Calm Calm - N/A   Clear
3:53 AM 36.0 °F - 19.0 °F 50% 29.95 in 10.0 mi Calm Calm - N/A   Clear
4:53 AM 35.1 °F 31.0 °F 21.9 °F 59% 29.94 in 10.0 mi SE 4.6 mph - N/A   Clear
5:53 AM 36.0 °F - 21.0 °F 55% 29.94 in - Calm Calm - N/A   Clear
7:53 AM 37.9 °F 35.5 °F 24.1 °F 57% 29.94 in 10.0 mi ESE 3.5 mph - N/A   Clear
8:53 AM 39.0 °F - 26.1 °F 60% 29.95 in 10.0 mi Calm Calm - N/A   Unknown
9:53 AM 42.1 °F - 27.0 °F 55% 29.94 in 10.0 mi Calm Calm - N/A   Unknown
10:53 AM 44.1 °F 42.5 °F 21.0 °F 40% 29.93 in 10.0 mi Variable 3.5 mph - N/A   Clear
11:53 AM 46.9 °F - 24.1 °F 41% 29.91 in 10.0 mi Calm Calm - N/A   Partly Cloudy
12:53 PM 46.9 °F - 19.9 °F 34% 29.90 in 10.0 mi Calm Calm - N/A   Partly Cloudy
1:53 PM 46.9 °F - 18.0 °F 32% 29.90 in 10.0 mi Calm Calm - N/A   Overcast
2:53 PM 48.0 °F - 21.0 °F 34% 29.88 in 10.0 mi Calm Calm - N/A   Overcast
3:53 PM 46.9 °F - 26.1 °F 44% 29.87 in 10.0 mi NW 5.8 mph - N/A   Mostly Cloudy
4:53 PM 46.9 °F - 26.1 °F 44% 29.87 in 10.0 mi Variable 4.6 mph - N/A   Overcast
5:53 PM 48.0 °F - 28.0 °F 46% 29.84 in 10.0 mi Variable 3.5 mph - N/A   Overcast
6:53 PM 44.1 °F 41.5 °F 30.0 °F 58% 29.84 in 10.0 mi Variable 4.6 mph - N/A   Mostly Cloudy
7:53 PM 42.1 °F 39.2 °F 28.9 °F 60% 29.85 in 10.0 mi NW 4.6 mph - N/A   Scattered Clouds
8:53 PM 41.0 °F 37.1 °F 28.0 °F 60% 29.84 in 10.0 mi NW 5.8 mph - N/A   Mostly Cloudy
9:53 PM 39.9 °F 35.1 °F 28.9 °F 65% 29.83 in 10.0 mi NW 6.9 mph - N/A   Partly Cloudy
10:53 PM 39.9 °F 34.5 °F 28.9 °F 65% 29.82 in 10.0 mi NW 8.1 mph - N/A   Overcast
11:53 PM 39.0 °F 34.0 °F 28.0 °F 65% 29.85 in 10.0 mi NW 6.9 mph - N/A   Overcast